Location: Arrington
(35.8681°N, 86.7092°W)
Time: 11:42:53
(UTC+00:00)

Cosmos 1048 Rocket - Pass Details

Date: 23 November 2019
Orbit: 742 x 792 km, 74.0° (Epoch: 10 December)

Event Time Altitude Azimuth Distance (km) Brightness Sun altitude
Rises 00:39:11 0° 204° (SSW) 3,229 7.7 -24.8°
Reaches altitude 10° 00:41:33 10° 207° (SSW) 2,314 6.9 -25.3°
Maximum altitude 00:46:46 64° 289° (WNW) 863 4.3 -26.3°
Enters shadow 00:48:54 36° 358° (N) 1,232 5.0 -26.7°
